Weather History for Kaneohe MCBH, HI

Change the Weather History Date:

Sunday, December 2, 2012

  Actual Average Record
Temperature  
Mean Temperature 78 °F -  
Max Temperature 86 °F 76 °F 86 °F (2012)
Min Temperature 71 °F 69 °F 39 °F (2001)
Cooling Degree Days 14    
Growing Degree Days 28 (Base 50)    
Moisture  
Dew Point 66 °F    
Average Humidity 71    
Maximum Humidity 92    
Minimum Humidity 42    
Precipitation  
Precipitation 0.00 in - - ()
Sea Level Pressure  
Sea Level Pressure 29.95 in    
Wind  
Wind Speed 5 mph (South)    
Max Wind Speed 14 mph    
Max Gust Speed 22 mph    
Visibility 10 miles    
Events      
Averages and records for this station are not official NWS values.
T = Trace of Precipitation, MM = Missing Value Source: NWS Daily Summary

Daily Weather History Graph

Daily Weather History Graph

Search for Another Location

Airport:

Trip Planner

Search our weather history database for the weather conditions in past years. The results will help you decide how hot, cold, wet, or windy it might be!

Date:

Astronomy

Dec. 02, 2012 Rise Set
Actual Time 6:53 AM HST 5:48 PM HST
Civil Twilight 6:29 AM HST 6:12 PM HST
Nautical Twilight 6:01 AM HST 6:39 PM HST
Astronomical Twilight 5:34 AM HST 7:06 PM HST
Moon 9:33 PM HST (12/2) 10:00 AM HST (12/2)
Length of Visible Light 11h 42m
Length of Day
10h 54m
Waning Gibbous, 84% of the Moon is Illuminated
Dec 2
Waning Gibbous
Dec 6
Last Quarter
Dec 12
New
Dec 19
First Quarter
Dec 28
Full

Hourly Weather History & Observations

Time (HST) Temp. Heat Index Dew Point Humidity Pressure Visibility Wind Dir Wind Speed Gust Speed Precip Events Conditions
12:57 AM - - - N/A% 30.03 in 10.0 mi Calm Calm - N/A   Clear
1:57 AM 71.6 °F - 69.1 °F 92% 30.01 in 10.0 mi Calm Calm - N/A   Clear
2:57 AM 71.6 °F - 66.9 °F 85% 30.01 in 10.0 mi Calm Calm - N/A   Clear
3:57 AM 71.6 °F - 66.9 °F 85% 30.01 in 10.0 mi Calm Calm - N/A   Clear
4:57 AM 71.6 °F - 66.9 °F 85% 30.02 in 10.0 mi SW 4.6 mph - N/A   Clear
5:57 AM 71.6 °F - 69.1 °F 92% 30.04 in 10.0 mi Calm Calm - N/A   Clear
6:57 AM 73.4 °F - 69.1 °F 86% 30.05 in 10.0 mi Calm Calm - N/A   Partly Cloudy
7:57 AM 73.4 °F - 66.9 °F 80% 30.04 in 10.0 mi SE 5.8 mph - N/A   Clear
8:57 AM 75.2 °F - 68.0 °F 78% 29.93 in 10.0 mi SE 12.7 mph 21.9 mph N/A   Scattered Clouds
9:57 AM 77.0 °F - 66.9 °F 71% 29.95 in 10.0 mi SE 9.2 mph - N/A   Clear
10:57 AM 77.0 °F - 70.0 °F 79% 29.94 in 10.0 mi SE 6.9 mph - N/A   Clear
11:57 AM 78.8 °F - 66.0 °F 65% 29.92 in 10.0 mi SE 9.2 mph - N/A   Clear
12:57 PM 82.4 °F 84.4 °F 66.0 °F 57% 29.88 in 10.0 mi SSE 10.4 mph - N/A   Clear
1:57 PM 86.0 °F 86.8 °F 63.0 °F 46% 29.87 in 10.0 mi SW 10.4 mph - N/A   Clear
2:57 PM 82.4 °F 82.0 °F 57.0 °F 42% 29.87 in 10.0 mi SSW 11.5 mph - N/A   Clear
3:57 PM 80.6 °F 81.1 °F 59.0 °F 48% 29.87 in 10.0 mi SSW 11.5 mph - N/A   Clear
4:57 PM 78.8 °F - 61.0 °F 54% 29.88 in 10.0 mi SSW 13.8 mph - N/A   Clear
5:57 PM 78.8 °F - 62.1 °F 56% 29.90 in 10.0 mi SSW 9.2 mph - N/A   Clear
6:57 PM 77.0 °F - 64.0 °F 64% 29.92 in 10.0 mi SSW 9.2 mph - N/A   Clear
7:57 PM 77.0 °F - 64.9 °F 66% 29.94 in 10.0 mi SSW 8.1 mph - N/A   Clear
8:57 PM 77.0 °F - 66.9 °F 71% 29.96 in 10.0 mi SSW 12.7 mph - N/A   Clear
9:57 PM 77.0 °F - 66.9 °F 71% 29.96 in 10.0 mi SSW 10.4 mph - N/A   Clear
10:57 PM 75.2 °F - 68.0 °F 78% 29.96 in 10.0 mi SSW 9.2 mph 16.1 mph N/A   Clear
11:57 PM 75.2 °F - 68.0 °F 78% 29.95 in 10.0 mi SSW 9.2 mph - N/A   Scattered Clouds